Tracking 31027 objects as of 19-Jul-2025
HD Live streaming from Space Station
objects crossing your sky now

STARLINK-32435

Track STARLINK-32435 now!
10-day predictions
STARLINK-32435 is classified as:


NORAD ID: 61259
Int'l Code: 2024-175S
Perigee: 481.5 km
Apogee: 483.2 km
Inclination: 53.2 °
Period: 94.1 minutes
Semi major axis: 6853 km
RCS: Unknown
Launch date: September 25, 2024
Source: United States (US)
Launch site: AIR FORCE WESTERN TEST RANGE (AFWTR)
Your satellite tracking list
ATLAS 2A CENTAUR R/B
Track 1 satellite(s)




NASA's NSSDC Master Catalog

Two Line Element Set (TLE):
1 61259U 24175S   25199.28908078  .00000359  00000-0  24244-4 0  9997
2 61259  53.1595 202.9645 0001205  83.0838 277.0299 15.30194165 45560
Source of the keplerian elements: AFSPC